Location: Newark
(48.1500°N, 13.1167°E)
Time: 16:15:59
(UTC+00:00)

XW-2D - Pass Details

Date: 10 December 2021
Orbit: 502 x 522 km, 97.5° (Epoch: 17 January)

Event Time Altitude Azimuth Distance (km) Brightness Sun altitude
Rises 05:47:37 0° 6° (N) 2,668 ? -9.5°
Reaches altitude 10° 05:49:49 10° 359° (N) 1,774 ? -9.1°
Maximum altitude 05:53:23 39° 290° (WNW) 795 ? -8.6°
Drops below altitude 10° 05:56:56 10° 220° (SW) 1,755 ? -8.0°
Sets 05:59:06 0° 213° (SSW) 2,636 ? -7.7°
